CAPE
0 0 0 0 0 0 0 0 0 0 0 0 0 0 0 0 0 0 0 24 1 0 0 260 543 719 683 538 649 742 724 651 588 545 499 691 823 755 638 518 210 148 163 308 611 530 690 461 346
0 0 0 0 0 0 0 0 0 0 0 0 0 0 0 0 0 0 0 0 0 0 0 3 210 406 510 620 697 741 793 688 716 742 499 405 435 696 771 833 754 451 206 191 289 411 432 391 454
0 0 0 0 0 0 0 0 0 0 0 0 0 0 0 0 0 0 0 0 0 0 0 0 1 2 80 186 289 475 665 632 572 527 465 475 477 426 458 430 428 383 387 363 322 356 383 492 404
0 0 0 0 0 0 0 0 0 0 0 0 0 0 0 0 0 0 0 0 0 0 0 0 0 0 0 1 5 44 198 386 391 272 388 494 588 622 483 363 223 226 244 272 544 392 454 475 348
0 0 0 0 0 0 0 0 0 0 0 0 0 0 0 0 0 0 0 0 0 0 0 0 0 0 0 0 0 0 0 2 5 6 18 53 176 440 495 403 338 260 280 358 286 415 476 494 455
0 0 0 0 0 0 0 0 0 0 0 0 0 0 0 0 0 0 0 0 0 0 0 0 0 0 0 0 0 0 0 0 0 0 1 16 78 130 253 372 471 457 370 395 434 420 437 389 519
0 0 0 0 0 0 0 0 0 0 0 0 0 0 0 0 0 0 0 0 0 0 0 0 0 0 0 0 0 0 0 0 0 0 0 0 3 3 3 5 68 301 465 339 293 384 430 365 475
0 0 0 0 0 0 0 0 0 0 0 0 0 0 0 0 0 0 0 0 0 0 0 0 0 0 0 0 0 0 0 0 0 0 0 0 0 0 0 0 0 2 115 324 421 480 509 433 311
0 0 0 0 0 0 0 0 0 0 0 0 0 0 0 0 0 0 0 0 0 0 0 0 0 0 0 0 0 0 0 0 0 0 0 0 0 0 0 0 0 1 0 13 174 453 469 379 271
0 0 0 0 0 0 0 0 0 0 0 0 0 0 0 0 0 0 0 0 0 0 0 0 0 0 0 0 0 0 0 0 0 0 0 0 0 0 0 0 0 0 0 1 1 89 198 301 264
0 0 0 0 0 0 0 0 0 0 0 0 0 0 0 0 0 0 0 0 0 0 0 0 0 0 0 0 0 0 0 0 0 0 0 0 0 0 0 0 0 0 0 0 0 0 0 58 205
0 0 0 0 0 0 0 0 0 0 0 0 0 0 0 0 0 0 0 0 0 0 0 0 0 0 0 0 0 0 0 0 0 0 0 0 0 0 0 0 0 0 0 0 0 0 0 0 2
0 0 0 0 0 0 0 0 0 0 0 0 0 0 0 0 0 0 0 0 0 0 0 0 0 0 0 0 0 0 0 0 0 0 0 0 0 0 0 0 0 0 0 0 0 0 3 0 0
0 0 0 0 0 0 0 0 0 0 0 0 0 0 0 0 0 0 0 0 0 0 0 0 0 0 0 0 0 0 0 0 0 0 0 0 0 0 0 0 0 0 0 0 0 0 0 3 20
0 0 0 0 0 0 0 0 0 0 0 0 0 0 0 0 0 0 0 0 0 0 0 0 0 0 0 0 0 0 0 0 0 0 0 0 0 0 0 0 0 0 0 0 0 0 0 0 0
0 0 0 0 0 0 0 0 0 0 0 0 0 0 0 0 0 0 0 0 0 0 0 0 0 0 0 0 0 0 0 0 0 0 0 0 0 0 0 0 0 0 0 0 0 0 0 0 0
0 0 0 0 0 0 0 0 0 0 0 0 0 0 0 0 0 0 0 0 0 0 0 0 0 0 0 0 0 0 0 0 0 0 0 0 0 0 0 0 0 0 0 0 0 0 0 0 0
0 0 0 0 0 0 0 0 0 0 0 0 0 0 0 0 0 0 0 0 0 0 0 0 0 0 0 0 0 0 0 0 0 0 0 0 0 0 0 0 0 0 0 0 0 0 0 0 0
0 0 0 0 0 0 0 0 0 0 0 0 0 0 0 0 0 0 0 0 0 0 0 0 0 0 0 0 0 0 0 0 0 0 0 0 0 0 0 0 0 0 0 0 0 0 0 0 0
0 0 0 0 0 0 0 0 0 0 0 0 0 0 0 0 0 0 0 0 0 0 0 0 0 0 0 0 0 0 0 0 0 0 0 0 0 0 0 0 0 0 0 0 0 0 0 0 0
0 0 0 0 0 0 0 0 0 0 0 0 0 0 0 0 0 0 0 0 0 0 0 0 0 0 0 0 0 0 0 0 0 0 0 0 0 0 0 0 0 0 0 0 0 0 0 4 0
0 0 0 0 0 0 0 0 0 0 0 0 0 0 0 0 0 0 0 0 0 0 0 0 0 0 0 0 0 0 0 0 0 0 0 0 0 0 0 0 0 0 0 0 0 0 0 0 2
0 0 0 0 0 0 0 0 0 0 0 0 0 0 0 0 0 0 0 0 0 0 0 0 0 0 0 0 0 0 0 0 0 0 0 0 0 0 0 0 0 0 0 0 0 0 0 0 0
0 0 0 0 0 0 0 0 0 0 0 0 0 0 0 0 0 0 0 0 0 0 0 0 0 0 0 0 0 0 0 0 0 0 0 0 0 0 0 0 0 0 0 0 0 0 0 0 0
0 0 0 0 0 0 0 0 0 0 0 0 0 0 0 0 0 0 0 0 0 0 0 0 0 0 0 0 0 0 0 0 0 0 0 0 0 0 0 0 0 0 0 0 0 0 0 0 0
0 0 0 0 0 0 0 0 0 0 0 0 0 0 0 0 0 0 0 0 0 0 0 0 0 0 0 0 0 0 0 0 0 0 0 0 0 0 0 0 0 0 0 0 0 0 0 0 0
0 0 0 0 0 0 0 0 0 0 0 0 0 0 0 0 0 0 0 0 0 0 0 0 0 0 0 0 0 0 0 0 0 0 0 0 0 0 0 0 0 0 0 0 0 0 0 0 0
0 0 0 0 0 0 0 0 0 0 0 0 0 0 0 0 0 0 0 0 0 0 0 0 0 0 0 0 0 0 0 0 0 0 0 0 0 0 0 0 0 0 0 0 0 0 0 0 0
0 0 0 0 0 0 0 0 0 0 0 0 0 0 0 0 0 0 0 0 0 0 0 0 0 0 0 0 0 0 0 0 0 0 0 0 0 0 0 0 1 1 0 0 0 0 0 0 0
0 0 0 0 0 0 0 0 0 0 0 0 0 0 0 0 0 0 0 0 0 0 0 0 0 0 0 0 0 0 0 0 0 0 0 0 0 0 2 1 0 0 0 3 1 0 0 0 0
CIN
0 0 0 0 0 0 0 0 0 0 0 0 0 0 0 0 0 0 0 -12 -16 0 0 -6 0 0 0 -8 -2 -3 -6 -11 -10 -7 -3 -2 0 0 -1 -5 -35 -45 -42 -15 -3 -2 -1 -3 -12
0 0 0 0 0 0 0 0 0 0 0 0 0 0 0 0 0 0 0 0 0 0 0 -21 -11 -2 -1 -3 0 0 0 -3 -2 -1 -9 -11 -5 -1 -1 0 -1 -14 -32 -34 -17 -10 -6 -5 -3
0 0 0 0 0 0 0 0 0 0 0 0 0 0 0 0 0 0 0 0 0 0 0 0 0 -31 -97 -12 -2 -1 0 0 -1 -8 -13 -7 -6 -13 -3 -2 -3 -8 -12 -18 -16 -10 -8 -5 -7
0 0 0 0 0 0 0 0 0 0 0 0 0 0 0 0 0 0 0 0 0 0 0 0 0 0 0 0 -4 -93 -11 0 0 -5 -4 -2 0 0 -3 -11 -24 -17 -16 -15 -6 -16 -8 -9 -12
0 0 0 0 0 0 0 0 0 0 0 0 0 0 0 0 0 0 0 0 0 0 0 0 0 0 0 0 0 0 0 0 0 -75 -84 -63 -34 -3 -1 -9 -20 -26 -11 -9 -17 -9 -10 -9 -9
0 0 0 0 0 0 0 0 0 0 0 0 0 0 0 0 0 0 0 0 0 0 0 0 0 0 0 0 0 0 0 0 0 0 0 -123 -32 -21 -8 -7 -3 -16 -27 -10 -4 -11 -13 -20 -11
0 0 0 0 0 0 0 0 0 0 0 0 0 0 0 0 0 0 0 0 0 0 0 0 0 0 0 0 0 0 0 0 0 0 0 0 0 0 0 -24 -87 -8 -4 -19 -26 -9 -18 -21 -18
0 0 0 0 0 0 0 0 0 0 0 0 0 0 0 0 0 0 0 0 0 0 0 0 0 0 0 0 0 0 0 0 0 0 0 0 0 0 0 0 0 0 -57 -16 -16 -9 -6 -12 -25
0 0 0 0 0 0 0 0 0 0 0 0 0 0 0 0 0 0 0 0 0 0 0 0 0 0 0 0 0 0 0 0 0 0 0 0 0 0 0 0 0 0 0 -75 -25 -5 -23 -21 -16
0 0 0 0 0 0 0 0 0 0 0 0 0 0 0 0 0 0 0 0 0 0 0 0 0 0 0 0 0 0 0 0 0 0 0 0 0 0 0 0 0 0 0 0 -27 -25 -29 -26 -25
0 0 0 0 0 0 0 0 0 0 0 0 0 0 0 0 0 0 0 0 0 0 0 0 0 0 0 0 0 0 0 0 0 0 0 0 0 0 0 0 0 0 0 0 0 0 -2 -31 -9
0 0 0 0 0 0 0 0 0 0 0 0 0 0 0 0 0 0 0 0 0 0 0 0 0 0 0 0 0 0 0 0 0 0 0 0 0 0 0 0 0 0 0 0 0 0 0 0 -27
0 0 0 0 0 0 0 0 0 0 0 0 0 0 0 0 0 0 0 0 0 0 0 0 0 0 0 0 0 0 0 0 0 0 0 0 0 0 0 0 0 0 0 0 0 0 -3 -1 0
0 0 0 0 0 0 0 0 0 0 0 0 0 0 0 0 0 0 0 0 0 0 0 0 0 0 0 0 0 0 0 0 0 0 0 0 0 0 0 0 0 0 0 0 0 0 0 -1 -2
0 0 0 0 0 0 0 0 0 0 0 0 0 0 0 0 0 0 0 0 0 0 0 0 0 0 0 0 0 0 0 0 0 0 0 0 0 0 0 0 0 0 0 0 0 0 0 0 0
0 0 0 0 0 0 0 0 0 0 0 0 0 0 0 0 0 0 0 0 0 0 0 0 0 0 0 0 0 0 0 0 0 0 0 0 0 0 0 0 0 0 0 0 0 0 0 0 0
0 0 0 0 0 0 0 0 0 0 0 0 0 0 0 0 0 0 0 0 0 0 0 0 0 0 0 0 0 0 0 0 0 0 0 0 0 0 0 0 0 0 0 0 0 0 0 0 0
0 0 0 0 0 0 0 0 0 0 0 0 0 0 0 0 0 0 0 0 0 0 0 0 0 0 0 0 0 0 0 0 0 0 0 0 0 0 0 0 0 0 0 0 0 0 0 0 0
0 0 0 0 0 0 0 0 0 0 0 0 0 0 0 0 0 0 0 0 0 0 0 0 0 0 0 0 0 0 0 0 0 0 0 0 0 0 0 0 0 0 0 0 0 0 0 0 0
0 0 0 0 0 0 0 0 0 0 0 0 0 0 0 0 0 0 0 0 0 0 0 0 0 0 0 0 0 0 0 0 0 0 0 0 0 0 0 0 0 0 0 0 0 0 0 0 0
0 0 0 0 0 0 0 0 0 0 0 0 0 0 0 0 0 0 0 0 0 0 0 0 0 0 0 0 0 0 0 0 0 0 0 0 0 0 0 0 0 0 0 0 0 0 0 -1 0
0 0 0 0 0 0 0 0 0 0 0 0 0 0 0 0 0 0 0 0 0 0 0 0 0 0 0 0 0 0 0 0 0 0 0 0 0 0 0 0 0 0 0 0 0 0 0 0 -1
0 0 0 0 0 0 0 0 0 0 0 0 0 0 0 0 0 0 0 0 0 0 0 0 0 0 0 0 0 0 0 0 0 0 0 0 0 0 0 0 0 0 0 0 0 0 0 0 0
0 0 0 0 0 0 0 0 0 0 0 0 0 0 0 0 0 0 0 0 0 0 0 0 0 0 0 0 0 0 0 0 0 0 0 0 0 0 0 0 0 0 0 0 0 0 0 0 0
0 0 0 0 0 0 0 0 0 0 0 0 0 0 0 0 0 0 0 0 0 0 0 0 0 0 0 0 0 0 0 0 0 0 0 0 0 0 0 0 0 0 0 0 0 0 0 0 0
0 0 0 0 0 0 0 0 0 0 0 0 0 0 0 0 0 0 0 0 0 0 0 0 0 0 0 0 0 0 0 0 0 0 0 0 0 0 0 0 0 0 0 0 0 0 0 0 0
0 0 0 0 0 0 0 0 0 0 0 0 0 0 0 0 0 0 0 0 0 0 0 0 0 0 0 0 0 0 0 0 0 0 0 0 0 0 0 0 0 0 0 0 0 0 0 0 0
0 0 0 0 0 0 0 0 0 0 0 0 0 0 0 0 0 0 0 0 0 0 0 0 0 0 0 0 0 0 0 0 0 0 0 0 0 0 0 0 0 0 0 0 0 0 0 0 0
0 0 0 0 0 0 0 0 0 0 0 0 0 0 0 0 0 0 0 0 0 0 0 0 0 0 0 0 0 0 0 0 0 0 0 0 0 0 0 -1 -1 -2 -1 -1 0 0 0 0 0
0 0 0 0 0 0 0 0 0 0 0 0 0 0 0 0 0 0 0 0 0 0 0 0 0 0 0 0 0 0 0 0 0 0 0 0 0 0 0 0 0 0 -2 -1 -1 -1 0 0 0
Wind_Speed
15 16 16 14 12 13 13 14 14 16 17 17 19 18 18 20 20 16 16 23 24 25 26 27 28 27 27 26 26 25 24 23 23 22 22 22 21 21 22 22 21 21 21 21 20 20 20 20 19
14 13 13 13 12 12 14 14 14 15 15 15 16 16 18 18 19 18 16 23 25 25 26 27 27 27 27 27 26 25 25 24 24 24 23 23 23 23 22 23 22 22 22 21 21 20 20 21 19
15 15 13 13 13 13 12 13 15 14 14 15 15 17 17 17 20 18 20 23 24 25 27 27 28 28 28 27 27 27 26 25 25 24 24 25 25 25 25 25 25 25 24 22 21 21 21 21 20
15 14 13 10 10 12 10 11 12 13 14 16 16 16 18 20 18 17 21 23 24 25 26 27 28 29 29 28 27 27 27 27 26 25 25 26 26 26 25 26 26 25 25 25 23 22 22 21 19
15 15 16 14 10 12 11 12 13 14 14 15 16 16 16 18 19 20 21 23 24 26 27 28 28 28 29 29 29 28 28 27 27 27 27 27 28 27 27 27 26 27 26 25 25 25 24 22 21
15 15 15 20 18 13 11 12 13 13 16 14 17 17 17 16 18 19 21 23 24 26 27 28 29 29 28 29 29 29 29 28 29 29 29 29 28 28 28 28 27 27 28 27 26 25 25 24 22
17 16 17 22 21 16 16 13 15 18 17 19 16 16 15 16 17 19 20 23 25 27 28 29 29 30 29 30 30 29 30 29 29 30 30 31 30 30 30 31 30 31 31 31 28 28 27 25 23
17 17 19 16 17 16 15 15 16 17 18 16 16 16 13 12 15 18 20 23 26 28 29 30 30 30 29 30 31 30 30 30 30 31 31 31 31 32 32 32 33 33 33 33 33 31 28 27 25
17 17 17 15 15 15 16 14 16 15 16 18 18 16 14 13 14 18 20 24 26 28 29 30 30 31 31 30 31 31 31 31 30 31 31 30 31 32 32 32 33 33 34 33 33 32 32 30 29
17 15 15 15 16 15 16 16 16 17 17 19 19 18 16 14 14 16 21 24 26 28 29 30 31 31 31 31 31 32 32 32 31 32 32 31 32 32 33 33 33 33 33 33 33 33 34 32 30
16 14 15 16 16 16 16 17 17 16 19 20 17 15 15 15 17 19 21 23 25 26 29 31 31 31 32 31 32 31 31 31 31 33 33 32 31 33 33 33 33 33 32 33 33 34 33 33 32
16 17 15 14 16 15 15 16 18 19 17 18 19 13 15 16 18 19 21 23 25 27 29 30 31 32 32 32 32 32 32 32 32 33 34 33 33 33 34 34 33 33 33 34 34 33 33 33 33
16 15 16 16 16 17 16 16 16 18 19 18 18 15 16 17 18 20 21 23 25 27 28 30 31 32 32 32 32 33 33 33 33 33 34 34 34 34 34 35 34 33 33 34 34 34 34 31 31
15 16 16 15 17 16 16 15 15 17 21 18 19 19 17 17 19 21 23 24 25 26 28 30 32 32 32 33 33 32 33 32 33 33 34 35 34 35 35 35 35 35 34 34 34 34 34 34 33
15 16 16 16 17 16 17 16 16 16 19 17 16 17 18 19 20 22 23 25 25 26 28 29 30 32 33 33 33 33 33 32 33 33 34 35 35 35 35 36 36 35 35 35 34 33 33 33 33
15 15 15 15 18 15 17 15 15 17 18 17 14 15 17 19 20 22 23 25 25 26 27 28 29 32 34 35 35 34 34 34 33 34 35 36 36 36 36 36 36 36 35 34 34 35 35 35 34
14 16 15 16 16 17 16 16 14 16 17 15 11 13 15 17 20 22 23 24 25 26 27 29 31 34 35 35 35 35 35 35 35 35 36 36 37 37 38 37 37 37 35 35 35 35 36 37 36
13 15 17 17 15 16 15 13 12 14 15 13 10 11 14 16 19 21 22 23 25 26 27 29 31 33 34 35 36 35 35 35 36 37 38 36 38 37 39 39 38 38 37 36 36 37 36 36 37
15 16 17 18 17 20 18 17 11 12 14 13 11 10 14 16 17 19 21 24 24 26 28 29 32 35 35 36 38 39 38 37 38 39 38 38 41 40 40 39 39 38 39 39 37 37 38 37 36
15 16 18 18 18 24 19 17 13 12 12 13 9 10 12 15 16 18 21 23 24 25 27 30 34 34 35 35 36 36 36 35 37 38 38 40 40 41 41 41 40 38 39 38 37 37 38 36 31
16 16 19 20 23 19 20 19 12 13 12 13 11 11 13 14 15 16 19 22 24 25 27 31 34 35 36 37 37 37 36 36 39 41 41 40 40 42 41 41 40 41 39 39 37 37 36 37 35
16 17 22 23 26 25 21 24 17 12 12 10 10 11 12 12 16 17 20 23 24 26 29 32 34 36 37 38 39 40 40 41 39 42 41 41 40 40 41 40 41 40 39 39 38 37 38 37 37
17 21 21 23 24 26 21 23 22 15 15 11 9 10 10 11 15 18 20 23 26 28 30 33 34 37 38 39 39 40 39 38 40 40 41 40 38 39 39 41 41 40 39 39 40 39 38 37 37
20 21 21 22 24 26 23 23 26 21 20 15 9 9 10 13 15 17 21 25 27 29 33 35 37 39 39 39 40 40 40 41 42 43 41 39 38 38 39 40 41 39 39 39 38 39 39 39 39
21 23 25 25 27 26 24 28 25 21 23 16 12 11 12 13 16 19 23 26 29 33 35 36 38 40 40 41 40 39 39 40 42 41 40 40 38 38 39 40 40 39 38 38 39 39 39 38 38
20 20 24 28 28 29 26 26 25 21 19 18 16 14 14 16 17 22 24 28 31 34 36 38 39 41 42 41 40 38 40 40 40 38 38 36 34 32 34 36 38 39 39 39 38 38 38 37 38
19 21 19 25 26 29 24 25 21 19 18 18 16 18 17 18 21 23 26 30 33 35 37 38 40 41 41 40 39 39 40 41 40 38 36 35 32 26 30 34 36 38 38 37 37 37 38 37 38
18 17 24 24 30 33 28 29 27 21 18 17 18 19 20 21 22 25 29 32 33 36 37 37 38 41 40 40 38 37 40 39 38 38 37 36 33 29 28 27 30 35 37 37 36 37 36 38 37
19 21 20 22 23 30 36 31 22 20 18 18 20 22 22 22 24 28 30 32 34 36 38 40 41 42 42 40 37 39 39 38 38 37 37 38 38 36 33 27 21 29 34 36 37 37 37 37 37
18 19 19 25 27 25 30 35 22 20 18 20 25 24 22 25 27 30 31 34 37 39 41 42 41 42 40 38 38 38 38 38 38 37 39 40 40 39 35 35 33 34 33 35 37 38 37 37 37
Wind_Direction
240 234 221 233 274 313 325 338 349 353 347 359 347 12 26 358 357 12 40 8 2 357 351 350 353 356 356 355 352 350 349 346 344 341 338 335 334 328 322 322 323 324 323 321 325 321 321 322 324
224 236 241 252 304 330 321 326 339 339 351 359 351 1 327 345 3 23 18 1 1 0 355 353 354 358 358 356 354 354 352 350 345 339 335 333 329 325 322 318 317 318 320 320 320 321 320 316 319
227 226 239 280 311 336 355 328 344 309 287 297 313 339 332 307 359 15 23 11 11 14 10 5 1 359 356 353 350 349 349 348 346 341 337 332 327 321 317 316 313 310 311 316 318 318 316 315 313
215 234 250 274 326 309 302 271 305 310 304 326 355 326 359 355 7 21 15 15 16 17 16 11 8 6 4 360 355 352 347 346 344 341 337 332 327 324 321 315 313 313 310 310 310 312 313 313 312
207 213 203 210 250 247 286 274 280 265 266 291 314 29 4 3 32 26 20 18 16 12 9 6 6 7 6 4 0 357 352 347 340 336 331 328 326 324 320 318 313 310 309 308 306 306 306 306 305
200 199 184 162 166 208 257 268 242 301 355 298 340 27 33 42 30 27 27 23 21 15 11 8 7 7 8 5 3 360 357 352 344 338 334 328 324 322 319 318 316 312 307 305 303 302 303 302 301
184 184 163 132 117 145 156 263 320 27 35 9 35 31 41 39 39 30 28 22 16 12 9 8 8 7 9 6 4 359 357 354 351 344 337 329 324 320 315 311 310 310 305 302 302 298 297 298 298
179 175 144 143 110 115 91 69 52 30 29 36 32 24 29 43 39 32 26 19 12 8 7 5 5 5 7 4 2 0 358 356 352 346 339 331 324 320 318 313 307 303 303 303 297 296 297 294 293
158 145 110 124 87 82 72 71 62 68 47 28 24 23 35 51 43 29 17 10 7 6 4 4 3 2 1 2 1 0 358 356 354 350 345 338 328 322 318 314 312 308 303 300 301 300 291 290 288
90 63 61 56 36 55 44 42 42 28 24 20 22 34 40 38 28 21 9 6 5 4 5 2 2 2 2 2 1 359 357 355 354 349 346 341 331 324 319 315 312 311 308 304 300 298 292 287 284
59 51 67 17 27 33 34 26 25 25 10 10 16 27 28 25 18 14 11 9 7 6 3 1 360 1 2 1 1 0 358 355 353 347 343 339 336 326 319 317 315 313 309 308 304 299 296 288 287
53 22 51 44 20 27 29 29 22 16 20 12 8 27 27 21 19 16 10 9 6 3 2 1 1 1 1 2 1 359 358 356 353 348 343 339 335 331 321 315 315 315 313 308 304 302 298 292 287
30 41 29 45 34 23 30 28 28 18 17 19 18 36 27 23 14 11 11 8 6 3 2 2 0 0 0 360 359 358 356 355 352 348 343 339 333 329 325 315 313 314 314 310 305 301 298 298 291
44 43 48 43 29 26 24 27 23 23 9 22 22 22 30 23 17 11 7 6 6 5 2 1 360 360 360 358 359 358 357 354 352 348 342 338 334 329 325 318 312 310 312 309 306 300 298 295 291
56 33 35 33 26 26 21 15 17 16 10 19 22 24 23 19 14 10 8 5 6 5 3 360 360 359 359 359 358 357 356 353 350 347 343 338 334 330 324 318 313 311 310 307 304 302 299 295 293
37 30 33 25 16 31 17 11 14 9 6 6 19 20 20 18 16 12 9 6 7 6 4 2 0 356 354 353 351 350 349 347 345 342 338 335 332 328 323 319 314 312 311 308 305 301 298 294 292
25 22 24 21 21 15 15 8 7 7 7 11 28 24 21 18 14 10 10 11 8 6 3 359 356 353 352 351 351 350 349 347 345 340 334 329 327 322 319 316 314 313 312 310 306 302 298 293 290
21 15 10 12 18 12 9 5 12 14 15 20 28 26 19 12 10 11 11 9 6 3 360 357 355 353 352 350 350 349 348 346 344 338 334 331 328 325 316 311 310 309 309 309 307 300 299 294 291
10 8 4 5 11 360 4 2 6 12 13 17 27 22 12 7 9 8 6 4 2 360 356 355 352 350 349 348 347 345 344 342 338 333 330 328 324 320 316 313 309 306 304 305 304 302 296 295 293
7 3 1 1 3 353 359 357 358 5 9 9 18 11 4 1 2 3 1 359 358 357 356 353 350 350 349 348 346 345 342 341 337 332 330 327 323 319 314 310 306 307 304 303 302 301 298 293 296
0 358 354 352 352 358 357 355 359 1 4 4 7 4 359 358 358 357 357 356 357 356 353 351 350 349 348 347 345 344 343 340 336 331 328 327 324 319 314 309 306 303 302 300 300 299 298 292 292
355 357 348 348 348 349 359 350 358 356 356 354 356 357 356 359 356 357 355 354 355 353 352 350 349 347 347 347 345 343 340 337 335 330 329 328 325 321 315 311 307 302 300 297 297 298 295 293 289
350 347 347 347 346 346 353 349 354 5 351 345 349 353 357 356 354 353 354 354 353 353 350 349 348 347 346 345 344 342 340 338 334 333 331 330 328 324 317 311 306 304 300 297 295 295 294 292 289
348 347 348 348 347 343 350 347 347 350 351 351 354 352 353 352 356 357 354 354 352 351 349 347 345 344 345 344 344 342 340 338 335 332 332 331 330 326 320 313 307 304 301 297 295 293 292 289 287
347 345 340 342 342 342 348 340 339 350 354 357 356 354 354 353 351 349 348 348 347 346 346 345 344 343 344 343 343 343 340 338 335 334 333 332 331 328 322 315 308 304 302 299 296 292 289 287 284
347 349 341 336 337 337 342 340 348 358 1 2 2 355 354 350 351 348 348 347 346 345 344 344 343 342 343 343 343 342 339 337 336 336 335 334 334 333 329 321 313 306 302 299 294 291 289 286 283
347 342 350 338 337 336 342 344 346 349 352 355 357 358 352 348 346 346 346 346 345 344 344 344 343 342 343 343 343 342 339 337 337 336 336 335 336 338 334 327 320 309 303 301 296 291 288 285 282
345 351 339 341 336 333 337 336 334 342 346 349 346 345 343 343 345 345 345 345 345 345 344 344 343 342 343 343 344 342 338 338 338 337 335 334 335 338 338 336 329 317 304 301 298 292 288 284 282
340 337 339 339 337 332 332 338 348 344 343 342 342 338 342 344 344 343 343 344 345 346 345 343 342 342 343 343 344 341 339 340 338 337 335 331 329 330 332 337 339 329 313 301 296 292 287 283 281
337 335 336 331 331 330 330 329 346 347 349 348 343 346 345 343 342 343 344 345 344 344 343 343 343 343 344 345 343 341 341 340 337 337 333 328 325 324 327 326 326 321 319 310 297 291 289 284 281